📊 Raw Sensor Data
Showing records 42451 to 42475 of 85,000 total
| ID | Distance (ft) | Battery V | Battery A | Int Temp (°F) | Int Humid (%) | Ext Temp (°F) | Solar V | RSSI | SNR | Time Stamp |
|---|---|---|---|---|---|---|---|---|---|---|
| 42562 | 15.5 | 4.01 | 0 | 99 | 46 | 90 | 5.10 | -76 | 8 | 06/04/2025 04:45 PM |
| 42561 | 15.5 | 4.01 | 0 | 99 | 46 | 90 | 5.10 | -73 | 8 | 06/04/2025 04:30 PM |
| 42560 | 15.4 | 4.01 | 0 | 99 | 45 | 90 | 5.10 | -75 | 8 | 06/04/2025 04:15 PM |
| 42559 | 15.5 | 4.01 | 0 | 98 | 45 | 88 | 5.10 | -72 | 8 | 06/04/2025 04:00 PM |
| 42558 | 15.4 | 4.01 | 0 | 99 | 44 | 90 | 5.10 | -76 | 8 | 06/04/2025 03:45 PM |
| 42557 | 15.4 | 4.01 | 0 | 98 | 44 | 89 | 5.10 | -75 | 8 | 06/04/2025 03:30 PM |
| 42556 | 15.4 | 4.01 | 0 | 98 | 43 | 90 | 5.10 | -75 | 8 | 06/04/2025 03:15 PM |
| 42555 | 15.4 | 4.01 | 0 | 98 | 43 | 89 | 5.10 | -74 | 8 | 06/04/2025 03:00 PM |
| 42554 | 15.4 | 4.01 | 0 | 97 | 42 | 90 | 5.10 | -73 | 7 | 06/04/2025 02:45 PM |
| 42553 | 15.4 | 4.01 | 0 | 96 | 42 | 90 | 5.10 | -74 | 7 | 06/04/2025 02:30 PM |
| 42552 | 15.4 | 4.01 | 0 | 95 | 42 | 88 | 5.10 | -74 | 8 | 06/04/2025 02:15 PM |
| 42551 | 15.4 | 4.01 | 0 | 95 | 42 | 86 | 5.10 | -74 | 7 | 06/04/2025 02:00 PM |
| 42550 | 15.4 | 4.01 | 0 | 93 | 42 | 87 | 5.10 | -74 | 7 | 06/04/2025 01:30 PM |
| 42549 | 15.4 | 4.01 | 0 | 91 | 42 | 86 | 5.10 | -74 | 7 | 06/04/2025 01:15 PM |
| 42548 | 15.4 | 4.01 | 0 | 90 | 42 | 84 | 5.10 | -74 | 7 | 06/04/2025 01:00 PM |
| 42547 | 15.4 | 4.01 | 0 | 88 | 43 | 83 | 5.10 | -74 | 7 | 06/04/2025 12:45 PM |
| 42546 | 15.4 | 4.04 | 0 | 88 | 43 | 84 | 5.10 | -74 | 7 | 06/04/2025 12:30 PM |
| 42545 | 15.4 | 4.13 | 0 | 86 | 43 | 82 | 5.10 | -73 | 7 | 06/04/2025 12:15 PM |
| 42544 | 15.4 | 4.01 | 0 | 85 | 43 | 82 | 5.10 | -72 | 6 | 06/04/2025 12:00 PM |
| 42543 | 15.4 | 4.01 | 0 | 85 | 43 | 83 | 5.10 | -74 | 8 | 06/04/2025 11:45 AM |
| 42542 | 15.4 | 4.14 | 0 | 84 | 42 | 83 | 5.10 | -74 | 7 | 06/04/2025 11:30 AM |
| 42541 | 15.4 | 4.01 | 0 | 83 | 42 | 82 | 5.10 | -74 | 8 | 06/04/2025 11:15 AM |
| 42540 | 15.4 | 4.01 | 0 | 82 | 42 | 82 | 5.10 | -75 | 7 | 06/04/2025 11:00 AM |
| 42539 | 15.4 | 4.07 | 0 | 81 | 42 | 80 | 5.10 | -75 | 8 | 06/04/2025 10:45 AM |
| 42538 | 15.5 | 4.01 | 0 | 80 | 42 | 78 | 5.10 | -73 | 8 | 06/04/2025 10:30 AM |